SCP
-0 -0 -0 -0 -0 0 0 0 0 0 0 0 0 0 0 0 0 0 0 0 0 0 0 0 0 0 0 0 0 0 0 0 0 0 0 0 0 0 0 0 0 0 0 0
-0 -0 -0 -0 -0 0 0 0 0 0 0 0 0 0 0 0 0 0 0 0 0 0 0 0 0 0 0 0 0 0 0 0 0 0 0 0 0 0 0 0 0 0 0 0
-0 -0 -0 -0 -0 0 0 0 0 0 0 0 0 0 0 0 0 0 0 -0 0 0 0 0 0 0 0 0 0 0 0 0 0 0 0 0 0 -0 -0 0 0 0 0 0
-0 -0 -0 -0 -0 0 0 0 0 0 0 0 0 0 0 0 0 0 0 0 0 0 0 0 0 0 0 0 0 0 0 0 0 0 -0 -0 -0 -0 -0 -0 -0 0 0 0
-0 -0 -0 -0 -0 0 0 0 0 0 0 0 0 0 0 0 0 0 0 0 0 0 0 0 0 0 0 0 0 0 0 0 0 0 0 -0 -0 -0 0 0 0 0 0 0
-0 -0 -0 -0 -0 0 0 0 0 0 0 0 0 0 0 0 0 0 0 0 0 0 0 0 0 0 0 0 0 0 0 0 0 0 0 0 0 -0 -0 0 0 0 0 0
-0 -0 -0 -0 -0 0 0 0 0 0 0 0 0 0 0 0 0 0 0 0 0 0 0 0 0 0 -0 -0 0 0 0 0 0 0 0 0 0 -0 0 0 0 0 0 0
-0 -0 -0 -0 -0 -0 0 0 0 0 0 0 -0 -0 -0 -0 0 0 0 0 -0 0 0 0 0 0 0 0 0 0 0 0 0 0 -0 -0 0 -0 0 0 0 0 0 0
-0 -0 -0 -0 -0 -0 0 0 0 0 0 0 0 0 0 0 0 0 0 0 -0 0 0 0 0 0 0 0 0 0 0 0 0 -0 0 0 -0 0 0 0 0 0 0 0
-0 -0 -0 -0 -0 -0 0 0 0 0 0 0 0 0 0 0 0 0 0 0 0 0 0 0 0 0 0 0 0 0 0 0 0 0 0 0 -0 0 0 0 0 0 0 0
-0 -0 -0 -0 -0 -0 0 0 0 0 0 0 0 0 0 0 0 0 0 0 0 0 0 0 0 0 0 0 0 0 0 0 0 0 0 0 0 0 0 0 0 0 0 0
-0 -0 -0 -0 -0 -0 0 0 0 0 0 0 0 0 0 0 0 0 0 0 0 0 0 0 0 0 0 0 0 0 0 0 0 0 0 0 0 0 0 0 0 0 0 0
-0 -0 -0 -0 -0 -0 0 0 0 0 0 0 0 0 0 0 0 0 0 0 0 0 -0 0 0 -0 0 0 0 0 0 0 0 0 0 0 0 0 0 0 0 0 0 0
-0 -0 -0 -0 -0 -0 -0 0 0 0 0 0 0 0 0 -0 0 0 -0 -0 0 -0 -0 0 0 0 -0 0 0 0 0 0 0 0 0 0 0 0 0 0 0 0 0 0
-0 -0 -0 -0 -0 0 0 0 0 0 0 0 0 0 -0 -0 -0 -0 -0 -0 0 0 0 0 0 0 0 0 0 0 0 0 0 0 -0 -0 0 0 0 0 0 0 0 0
-0 -0 -0 -0 0 -0 0 0 0 -0 0 0 0 0 0 -0 -0 -0 -0 -0 -0 0 0 0 0 -0 0 0 0 0 0 0 0 0 0 0 0 0 0 0 0 0 0 0
-0 -0 -0 -0 -0 0 0 0 0 -0 0 0 0 0 0 -0 0 0 -0 -0 0 0 0 0 0 0 0 0 0 0 0 0 0 0 0 0 -0 0 0 0 0 0 0 0
-0 -0 0 0 -0 0 0 0 0 0 0 0 0 0 -0 0 -0 -0 -0 -0 -0 0 0 -0 0 0 -0 0 0 0 0 0 0 -0 -0 0 0 0 0 0 0 0 0 0
-0 0 0 0 0 0 0 -0 0 0 0 0 0 0 0 -0 -0 -0 -0 -0 0 -0 0 0 0 0 0 0 0 0 0 0 0 -0 0 0 0 0 0 0 0 0 0 0
0 0 0 0 0 0 0 0 0 0 0 0 0 -0 -0 -0 -0 -0 -0 -0 0 0 0 0 0 0 0 0 0 0 0 0 0 0 0 0 0 0 0 0 0 -0 0 0
0 0 0 0 -0 0 0 0 0 0 0 0 0 0 0 0 -0 0 -0 0 0 0 0 0 0 0 0 0 0 0 0 0 0 0 0 0 0 0 0 0 0 0 -0 -0
0 0 0 0 0 0 0 0 0 0 0 0 0 0 -0 0 -0 0 0 0 0 0 0 0 0 0 0 0 0 0 0 0 0 0 0 0 0 0 0 0 0 0 0 0
0 0 0 0 0 0 0 0 0 0 0 0 0 0 0 0 0 0 0 0 0 0 0 0 0 0 0 0 0 0 0 0 0 0 0 0 0 0 0 0 0 0 0 0
0 0 0 0 0 0 0 0 0 0 0 0 0 0 0 0 0 0 0 0 0 0 0 0 0 0 0 0 0 0 0 0 0 0 0 0 0 0 0 0 0 0 0 0
0 0 0 0 0 0 0 0 0 0 0 0 0 0 0 0 0 0 0 0 0 0 0 0 0 0 0 0 0 0 0 0 0 0 0 0 0 0 0 0 0 0 0 0
0 0 0 0 0 0 0 0 0 0 0 0 0 0 0 0 0 0 0 0 0 0 0 0 0 0 0 0 0 0 0 0 0 0 0 0 0 0 0 0 0 0 0 0
0 0 0 0 0 0 0 0 0 0 -0 0 0 0 0 0 0 0 0 0 0 0 0 0 0 0 0 0 0 0 0 0 0 0 0 0 0 0 0 0 0 0 0 0
Wind_Speed_500mb
39 33 24 11 7 13 15 10 8 18 12 4 4 3 2 9 10 21 16 12 13 9 10 9 6 7 7 21 4 6 7 4 5 7 6 17 14 9 6 6 5 6 4 7
38 33 23 11 8 10 12 10 14 13 8 2 1 1 7 18 12 16 10 9 14 9 6 7 5 4 3 20 11 4 2 8 6 7 8 8 13 11 7 9 3 9 6 6
38 33 23 11 9 10 11 8 5 7 5 7 2 6 7 9 19 14 12 8 8 6 9 11 5 4 6 10 11 17 12 8 7 6 8 8 16 26 21 12 9 8 9 7
39 34 25 8 10 11 12 8 5 6 3 7 4 7 3 6 7 10 24 10 14 7 5 4 5 3 5 17 14 11 8 12 24 28 31 33 32 29 28 25 9 10 8 11
40 36 29 11 8 11 9 9 11 14 9 3 5 7 8 7 6 10 11 16 20 18 8 5 3 5 9 8 13 8 8 9 17 26 28 28 32 31 26 15 11 11 10 11
41 39 33 20 8 8 8 16 24 11 14 5 4 3 6 6 9 19 11 9 9 16 9 28 41 46 34 17 7 6 6 9 6 7 23 10 11 22 18 8 17 9 14 13
39 39 34 27 17 13 17 22 17 11 6 8 4 5 10 12 8 16 11 17 8 11 54 48 33 43 51 55 41 19 8 7 4 4 7 2 4 19 8 17 15 14 14 15
36 38 33 28 22 18 16 19 14 11 9 7 23 25 29 32 33 17 21 14 13 55 9 5 3 5 6 18 28 29 10 7 7 4 7 6 7 22 11 4 11 14 16 20
33 37 34 28 24 20 14 18 23 23 27 8 9 13 11 9 6 6 11 19 38 18 8 5 5 7 6 10 4 19 26 18 9 4 8 11 21 27 15 17 14 16 18 22
30 35 32 29 23 20 16 20 26 29 32 9 8 8 6 7 7 5 4 6 11 22 3 6 6 6 3 7 9 12 10 10 14 8 8 9 22 26 3 8 12 20 17 20
26 31 28 30 31 21 15 23 21 23 22 26 21 14 10 8 6 3 2 2 8 6 7 5 5 6 6 7 11 8 12 8 7 4 7 8 32 23 14 5 11 15 19 18
22 28 29 27 24 25 25 40 39 38 28 38 39 36 28 20 13 9 8 7 4 4 8 5 7 7 5 3 6 10 6 8 6 8 9 11 15 14 15 14 15 13 19 20
17 23 29 37 31 29 26 36 52 64 56 39 29 27 29 26 19 8 7 6 7 16 28 12 7 14 1 6 9 3 6 16 5 4 18 24 28 23 27 21 19 32 28 25
14 18 17 14 23 22 16 15 14 21 20 13 18 26 29 25 20 20 23 33 37 37 35 17 9 9 7 7 9 9 9 15 8 8 28 8 40 39 40 29 26 33 33 29
12 13 14 20 32 37 35 19 13 12 11 15 19 33 26 22 26 30 28 36 47 30 18 19 9 12 13 9 9 14 18 9 8 2 8 4 12 32 35 36 36 34 32 33
12 11 13 16 24 18 26 35 48 55 52 24 8 18 33 35 31 33 47 47 39 35 15 11 11 10 8 6 7 14 23 31 14 6 8 24 31 18 36 33 35 34 32 32
14 14 16 16 11 4 15 15 24 34 41 25 8 9 16 32 40 42 43 45 36 26 13 13 11 10 12 8 11 12 22 28 30 30 25 21 32 36 40 39 39 38 34 34
15 17 17 16 24 31 26 26 21 20 16 10 8 4 10 14 17 10 17 19 20 18 12 9 10 8 7 7 8 10 11 9 22 24 34 28 27 35 43 41 43 41 39 39
15 16 15 16 19 17 27 39 34 21 11 9 9 5 5 7 11 11 5 8 8 7 8 7 4 7 9 19 25 20 19 16 20 16 22 28 29 31 37 43 49 46 45 47
19 16 8 7 8 13 14 11 8 10 18 16 11 6 4 6 4 5 3 7 5 4 7 5 7 7 14 22 18 19 17 11 10 13 21 23 26 28 33 37 40 38 43 49
9 6 6 12 11 8 8 8 12 13 8 10 9 11 5 10 3 5 5 6 3 5 5 3 5 5 13 9 15 14 11 10 14 19 23 27 28 28 34 41 43 46 46 49
15 14 17 13 11 11 12 6 6 11 4 8 5 8 6 5 5 3 5 5 2 7 2 5 4 7 17 6 9 10 11 13 16 20 30 32 30 33 40 40 41 43 42 44
18 12 9 12 13 17 7 6 4 3 7 13 9 5 3 2 9 9 5 7 8 5 5 5 4 17 8 4 7 5 11 22 20 24 28 36 37 34 38 43 43 44 45 44
11 10 12 6 6 6 5 4 4 5 6 11 9 5 6 9 8 6 7 5 2 5 4 5 10 16 3 1 6 13 18 23 25 28 33 38 45 40 45 49 50 50 53 50
9 9 7 7 5 8 7 6 6 9 7 6 4 7 7 12 7 8 5 5 7 6 5 6 13 10 6 7 8 16 24 29 32 36 35 37 42 44 48 45 50 44 48 47
9 11 8 8 9 11 10 10 8 11 5 6 7 6 6 9 5 6 7 4 4 5 5 13 15 9 5 5 12 20 29 34 35 32 36 43 49 45 46 48 49 52 52 54
8 10 21 17 13 12 14 15 13 9 6 5 6 7 7 2 5 5 4 5 7 10 15 15 9 5 2 9 16 25 30 30 34 39 40 41 45 50 53 57 58 57 55 55
Wind_Direction_500mb
0 1 5 26 104 134 131 117 84 143 132 48 37 100 190 352 352 48 65 78 65 52 43 61 75 72 11 350 318 40 20 78 68 68 47 80 64 49 22 352 91 49 6 75
4 4 11 46 103 141 122 88 95 134 161 127 70 23 85 47 33 29 44 62 50 52 73 94 58 57 61 31 50 48 90 34 152 146 165 80 48 26 72 94 101 40 354 57
7 8 14 50 80 135 129 108 86 83 92 73 136 116 58 98 39 55 54 84 98 98 61 42 104 66 17 52 88 76 87 62 359 339 54 79 78 48 47 63 59 96 54 26
9 14 15 57 77 141 128 81 94 117 76 42 73 63 47 82 47 55 34 57 43 55 91 65 66 25 357 69 33 52 71 69 88 77 80 83 74 59 49 57 58 41 25 351
11 14 21 37 84 129 127 127 140 94 71 34 101 14 33 114 143 26 31 95 67 64 81 30 2 345 26 32 25 62 31 120 101 84 75 78 73 54 43 45 30 55 27 44
14 18 25 42 82 131 126 129 113 102 20 26 110 43 137 123 111 53 76 118 91 53 37 100 90 87 75 65 57 76 82 134 120 169 13 1 39 24 24 62 47 8 21 360
19 21 28 40 64 100 128 127 112 98 51 76 48 110 105 102 70 112 57 63 82 119 121 99 92 78 69 57 46 38 113 89 52 90 97 37 111 30 33 81 53 26 7 353
23 23 29 41 58 88 115 122 112 106 98 79 85 92 106 96 93 80 78 47 117 144 128 104 71 8 94 51 41 31 46 114 93 118 85 230 39 353 329 341 55 12 347 350
29 25 30 43 57 72 103 126 125 119 121 32 102 89 81 97 81 67 91 60 156 153 57 70 62 47 344 21 74 34 52 65 94 98 74 29 352 347 4 174 50 3 352 350
36 31 39 49 55 67 104 113 130 128 100 87 102 88 105 96 101 82 23 87 138 204 89 72 64 79 349 37 31 352 356 20 51 75 93 55 350 350 248 51 349 338 341 344
45 40 50 50 57 67 119 106 130 132 99 79 89 92 99 103 88 118 153 170 41 84 77 92 93 75 58 81 47 4 22 3 30 37 65 55 3 31 57 13 347 333 341 341
57 51 55 52 62 72 96 104 111 115 103 109 89 79 74 77 86 104 53 98 83 104 105 102 126 99 81 23 67 21 40 15 26 20 63 26 19 25 358 345 328 348 333 328
74 66 87 85 75 62 67 105 111 111 103 84 82 67 70 71 67 65 109 90 100 103 109 113 106 86 55 72 39 354 46 24 40 164 37 5 21 3 354 323 338 341 324 322
97 77 85 79 45 48 64 121 123 122 103 89 65 84 71 73 63 80 114 126 118 109 99 78 79 104 69 76 88 59 349 329 2 62 11 6 10 17 5 348 317 318 318 310
110 87 89 88 88 83 77 85 112 135 103 124 111 80 67 90 93 99 111 125 121 102 83 87 80 92 100 85 81 52 7 345 27 104 310 337 336 359 354 359 357 349 337 328
113 99 71 99 108 103 85 76 85 101 114 104 93 79 82 103 108 105 114 108 99 102 80 79 74 71 80 89 88 51 43 58 45 26 4 16 357 344 354 351 348 348 349 353
127 104 85 69 77 127 103 98 110 107 106 101 74 78 65 109 105 98 101 103 83 74 74 55 77 70 75 88 85 89 70 55 45 38 32 6 9 359 359 354 345 341 338 340
136 122 130 108 97 107 91 104 115 111 95 75 88 59 82 95 110 87 102 89 66 50 84 76 87 72 76 85 123 114 37 28 34 42 39 31 16 16 13 10 3 359 355 348
137 131 129 108 94 89 95 89 81 73 82 91 76 86 87 46 92 101 95 97 77 77 77 75 84 34 48 118 100 77 52 33 29 27 29 18 16 11 8 6 3 360 358 358
126 120 108 78 64 92 98 67 58 50 44 50 69 43 63 58 84 66 77 60 88 89 56 96 66 74 115 127 54 36 25 47 33 5 354 348 352 351 359 3 5 3 360 1
102 68 68 99 76 62 53 58 43 15 54 40 35 45 57 39 58 96 58 109 104 101 85 54 88 108 160 139 9 18 24 15 356 341 335 332 334 333 344 354 0 7 9 10
89 104 96 51 37 43 63 32 15 37 53 18 28 3 43 48 46 91 39 86 95 88 82 81 78 123 150 31 10 11 359 349 358 7 1 359 348 341 339 339 343 351 356 357
67 59 52 22 14 46 41 29 43 63 13 9 9 34 56 46 37 71 60 66 62 128 59 72 78 162 173 356 355 15 17 0 352 357 352 350 344 337 337 337 334 333 338 341
57 44 27 44 30 52 26 32 38 11 0 6 30 34 50 22 54 20 76 68 150 81 74 76 149 174 191 43 60 22 4 358 348 334 331 334 337 333 335 335 329 327 330 326
64 50 55 55 65 64 39 10 28 359 11 31 58 59 52 32 67 38 107 81 72 44 87 123 151 150 117 66 13 350 347 341 335 334 330 332 333 329 329 333 333 335 329 327
58 57 82 88 67 42 48 34 26 21 84 61 55 73 70 51 31 57 47 79 71 111 111 135 132 99 77 2 345 341 337 334 333 336 335 334 337 335 333 333 332 332 330 328
55 70 80 84 67 45 31 26 13 32 56 57 45 56 48 92 65 74 17 87 107 114 118 126 122 143 341 345 348 344 344 344 338 335 338 339 336 331 329 329 329 327 325 322
Wind_Speed_850mb
39 33 24 11 7 13 15 10 8 18 12 4 4 3 2 9 10 21 16 12 13 9 10 9 6 7 7 21 4 6 7 4 5 7 6 17 14 9 6 6 5 6 4 7
38 33 23 11 8 10 12 10 14 13 8 2 1 1 7 18 12 16 10 9 14 9 6 7 5 4 3 20 11 4 2 8 6 7 8 8 13 11 7 9 3 9 6 6
38 33 23 11 9 10 11 8 5 7 5 7 2 6 7 9 19 14 12 8 8 6 9 11 5 4 6 10 11 17 12 8 7 6 8 8 16 26 21 12 9 8 9 7
39 34 25 8 10 11 12 8 5 6 3 7 4 7 3 6 7 10 24 10 14 7 5 4 5 3 5 17 14 11 8 12 24 28 31 33 32 29 28 25 9 10 8 11
40 36 29 11 8 11 9 9 11 14 9 3 5 7 8 7 6 10 11 16 20 18 8 5 3 5 9 8 13 8 8 9 17 26 28 28 32 31 26 15 11 11 10 11
41 39 33 20 8 8 8 16 24 11 14 5 4 3 6 6 9 19 11 9 9 16 9 28 41 46 34 17 7 6 6 9 6 7 23 10 11 22 18 8 17 9 14 13
39 39 34 27 17 13 17 22 17 11 6 8 4 5 10 12 8 16 11 17 8 11 54 48 33 43 51 55 41 19 8 7 4 4 7 2 4 19 8 17 15 14 14 15
36 38 33 28 22 18 16 19 14 11 9 7 23 25 29 32 33 17 21 14 13 55 9 5 3 5 6 18 28 29 10 7 7 4 7 6 7 22 11 4 11 14 16 20
33 37 34 28 24 20 14 18 23 23 27 8 9 13 11 9 6 6 11 19 38 18 8 5 5 7 6 10 4 19 26 18 9 4 8 11 21 27 15 17 14 16 18 22
30 35 32 29 23 20 16 20 26 29 32 9 8 8 6 7 7 5 4 6 11 22 3 6 6 6 3 7 9 12 10 10 14 8 8 9 22 26 3 8 12 20 17 20
26 31 28 30 31 21 15 23 21 23 22 26 21 14 10 8 6 3 2 2 8 6 7 5 5 6 6 7 11 8 12 8 7 4 7 8 32 23 14 5 11 15 19 18
22 28 29 27 24 25 25 40 39 38 28 38 39 36 28 20 13 9 8 7 4 4 8 5 7 7 5 3 6 10 6 8 6 8 9 11 15 14 15 14 15 13 19 20
17 23 29 37 31 29 26 36 52 64 56 39 29 27 29 26 19 8 7 6 7 16 28 12 7 14 1 6 9 3 6 16 5 4 18 24 28 23 27 21 19 32 28 25
14 18 17 14 23 22 16 15 14 21 20 13 18 26 29 25 20 20 23 33 37 37 35 17 9 9 7 7 9 9 9 15 8 8 28 8 40 39 40 29 26 33 33 29
12 13 14 20 32 37 35 19 13 12 11 15 19 33 26 22 26 30 28 36 47 30 18 19 9 12 13 9 9 14 18 9 8 2 8 4 12 32 35 36 36 34 32 33
12 11 13 16 24 18 26 35 48 55 52 24 8 18 33 35 31 33 47 47 39 35 15 11 11 10 8 6 7 14 23 31 14 6 8 24 31 18 36 33 35 34 32 32
14 14 16 16 11 4 15 15 24 34 41 25 8 9 16 32 40 42 43 45 36 26 13 13 11 10 12 8 11 12 22 28 30 30 25 21 32 36 40 39 39 38 34 34
15 17 17 16 24 31 26 26 21 20 16 10 8 4 10 14 17 10 17 19 20 18 12 9 10 8 7 7 8 10 11 9 22 24 34 28 27 35 43 41 43 41 39 39
15 16 15 16 19 17 27 39 34 21 11 9 9 5 5 7 11 11 5 8 8 7 8 7 4 7 9 19 25 20 19 16 20 16 22 28 29 31 37 43 49 46 45 47
19 16 8 7 8 13 14 11 8 10 18 16 11 6 4 6 4 5 3 7 5 4 7 5 7 7 14 22 18 19 17 11 10 13 21 23 26 28 33 37 40 38 43 49
9 6 6 12 11 8 8 8 12 13 8 10 9 11 5 10 3 5 5 6 3 5 5 3 5 5 13 9 15 14 11 10 14 19 23 27 28 28 34 41 43 46 46 49
15 14 17 13 11 11 12 6 6 11 4 8 5 8 6 5 5 3 5 5 2 7 2 5 4 7 17 6 9 10 11 13 16 20 30 32 30 33 40 40 41 43 42 44
18 12 9 12 13 17 7 6 4 3 7 13 9 5 3 2 9 9 5 7 8 5 5 5 4 17 8 4 7 5 11 22 20 24 28 36 37 34 38 43 43 44 45 44
11 10 12 6 6 6 5 4 4 5 6 11 9 5 6 9 8 6 7 5 2 5 4 5 10 16 3 1 6 13 18 23 25 28 33 38 45 40 45 49 50 50 53 50
9 9 7 7 5 8 7 6 6 9 7 6 4 7 7 12 7 8 5 5 7 6 5 6 13 10 6 7 8 16 24 29 32 36 35 37 42 44 48 45 50 44 48 47
9 11 8 8 9 11 10 10 8 11 5 6 7 6 6 9 5 6 7 4 4 5 5 13 15 9 5 5 12 20 29 34 35 32 36 43 49 45 46 48 49 52 52 54
8 10 21 17 13 12 14 15 13 9 6 5 6 7 7 2 5 5 4 5 7 10 15 15 9 5 2 9 16 25 30 30 34 39 40 41 45 50 53 57 58 57 55 55
Wind_Direction_850mb
0 1 5 26 104 134 131 117 84 143 132 48 37 100 190 352 352 48 65 78 65 52 43 61 75 72 11 350 318 40 20 78 68 68 47 80 64 49 22 352 91 49 6 75
4 4 11 46 103 141 122 88 95 134 161 127 70 23 85 47 33 29 44 62 50 52 73 94 58 57 61 31 50 48 90 34 152 146 165 80 48 26 72 94 101 40 354 57
7 8 14 50 80 135 129 108 86 83 92 73 136 116 58 98 39 55 54 84 98 98 61 42 104 66 17 52 88 76 87 62 359 339 54 79 78 48 47 63 59 96 54 26
9 14 15 57 77 141 128 81 94 117 76 42 73 63 47 82 47 55 34 57 43 55 91 65 66 25 357 69 33 52 71 69 88 77 80 83 74 59 49 57 58 41 25 351
11 14 21 37 84 129 127 127 140 94 71 34 101 14 33 114 143 26 31 95 67 64 81 30 2 345 26 32 25 62 31 120 101 84 75 78 73 54 43 45 30 55 27 44
14 18 25 42 82 131 126 129 113 102 20 26 110 43 137 123 111 53 76 118 91 53 37 100 90 87 75 65 57 76 82 134 120 169 13 1 39 24 24 62 47 8 21 360
19 21 28 40 64 100 128 127 112 98 51 76 48 110 105 102 70 112 57 63 82 119 121 99 92 78 69 57 46 38 113 89 52 90 97 37 111 30 33 81 53 26 7 353
23 23 29 41 58 88 115 122 112 106 98 79 85 92 106 96 93 80 78 47 117 144 128 104 71 8 94 51 41 31 46 114 93 118 85 230 39 353 329 341 55 12 347 350
29 25 30 43 57 72 103 126 125 119 121 32 102 89 81 97 81 67 91 60 156 153 57 70 62 47 344 21 74 34 52 65 94 98 74 29 352 347 4 174 50 3 352 350
36 31 39 49 55 67 104 113 130 128 100 87 102 88 105 96 101 82 23 87 138 204 89 72 64 79 349 37 31 352 356 20 51 75 93 55 350 350 248 51 349 338 341 344
45 40 50 50 57 67 119 106 130 132 99 79 89 92 99 103 88 118 153 170 41 84 77 92 93 75 58 81 47 4 22 3 30 37 65 55 3 31 57 13 347 333 341 341
57 51 55 52 62 72 96 104 111 115 103 109 89 79 74 77 86 104 53 98 83 104 105 102 126 99 81 23 67 21 40 15 26 20 63 26 19 25 358 345 328 348 333 328
74 66 87 85 75 62 67 105 111 111 103 84 82 67 70 71 67 65 109 90 100 103 109 113 106 86 55 72 39 354 46 24 40 164 37 5 21 3 354 323 338 341 324 322
97 77 85 79 45 48 64 121 123 122 103 89 65 84 71 73 63 80 114 126 118 109 99 78 79 104 69 76 88 59 349 329 2 62 11 6 10 17 5 348 317 318 318 310
110 87 89 88 88 83 77 85 112 135 103 124 111 80 67 90 93 99 111 125 121 102 83 87 80 92 100 85 81 52 7 345 27 104 310 337 336 359 354 359 357 349 337 328
113 99 71 99 108 103 85 76 85 101 114 104 93 79 82 103 108 105 114 108 99 102 80 79 74 71 80 89 88 51 43 58 45 26 4 16 357 344 354 351 348 348 349 353
127 104 85 69 77 127 103 98 110 107 106 101 74 78 65 109 105 98 101 103 83 74 74 55 77 70 75 88 85 89 70 55 45 38 32 6 9 359 359 354 345 341 338 340
136 122 130 108 97 107 91 104 115 111 95 75 88 59 82 95 110 87 102 89 66 50 84 76 87 72 76 85 123 114 37 28 34 42 39 31 16 16 13 10 3 359 355 348
137 131 129 108 94 89 95 89 81 73 82 91 76 86 87 46 92 101 95 97 77 77 77 75 84 34 48 118 100 77 52 33 29 27 29 18 16 11 8 6 3 360 358 358
126 120 108 78 64 92 98 67 58 50 44 50 69 43 63 58 84 66 77 60 88 89 56 96 66 74 115 127 54 36 25 47 33 5 354 348 352 351 359 3 5 3 360 1
102 68 68 99 76 62 53 58 43 15 54 40 35 45 57 39 58 96 58 109 104 101 85 54 88 108 160 139 9 18 24 15 356 341 335 332 334 333 344 354 0 7 9 10
89 104 96 51 37 43 63 32 15 37 53 18 28 3 43 48 46 91 39 86 95 88 82 81 78 123 150 31 10 11 359 349 358 7 1 359 348 341 339 339 343 351 356 357
67 59 52 22 14 46 41 29 43 63 13 9 9 34 56 46 37 71 60 66 62 128 59 72 78 162 173 356 355 15 17 0 352 357 352 350 344 337 337 337 334 333 338 341
57 44 27 44 30 52 26 32 38 11 0 6 30 34 50 22 54 20 76 68 150 81 74 76 149 174 191 43 60 22 4 358 348 334 331 334 337 333 335 335 329 327 330 326
64 50 55 55 65 64 39 10 28 359 11 31 58 59 52 32 67 38 107 81 72 44 87 123 151 150 117 66 13 350 347 341 335 334 330 332 333 329 329 333 333 335 329 327
58 57 82 88 67 42 48 34 26 21 84 61 55 73 70 51 31 57 47 79 71 111 111 135 132 99 77 2 345 341 337 334 333 336 335 334 337 335 333 333 332 332 330 328
55 70 80 84 67 45 31 26 13 32 56 57 45 56 48 92 65 74 17 87 107 114 118 126 122 143 341 345 348 344 344 344 338 335 338 339 336 331 329 329 329 327 325 322